Regional Weather Roundup
Issued by NWS Bismarck, ND

Home | Current Version | Previous Version | Text Only | Print | Product List | Glossary On
Versions: 1 2 3 4 5 6 7 8 9 10 11 12 13 14 15 16 17 18 19 20 21 22 23 24 25 26 27 28 29 30 31 32 33 34 35 36 37 38 39 40 41 42 43 44 45 46 47 48 49 50
000
ASUS43 KBIS 240220
RWRBIS

NWR BROADCAST TEXT
NATIONAL WEATHER SERVICE BISMARCK ND
900 PM CDT TUE SEP 23 2014

NOTE: "FAIR" INDICATES FEW OR NO CLOUDS BELOW 12,000 FEET WITH NO
SIGNIFICANT WEATHER AND/OR OBSTRUCTIONS TO VISIBILITY.


CITY           SKY/WX    TMP DP  RH WIND       PRES   REMARKS
WILLISTON      CLEAR     64  52  64 SE3       29.82S
MINOT          CLEAR     62  56  80 SE12      29.88R
MINOT AFB      CLEAR     62  59  88 SE13      29.87R
BISMARCK       CLOUDY    60  57  89 SE14      29.94R
DICKINSON      CLEAR     62  55  77 SE8       29.88R
GARRISON         N/A     61  57  87 SE10      29.90R
HETTINGER ARPT PTCLDY    66  57  72 SE10      29.92R
JAMESTOWN      CLOUDY    59  54  83 SE10      29.98S
BEACH            N/A     63  50  63 CALM      29.91R
CARRINGTON     CLOUDY    57  57 100 S16G24    29.98S
CROSBY         FAIR      63  55  77 S8        29.82R
HARVEY         CLOUDY    59  55  88 S12G20    29.95R
HAZEN          FAIR      59  55  88 SE7       29.91R
LINTON         CLOUDY    57  57 100 SE9       29.95S
MANDAN         CLOUDY    57  55  94 SE10      29.94S
OAKES            N/A     57  57 100 SE10      29.99S
RUGBY          MOCLDY    61  57  88 S12G20    29.93S
STANLEY        FAIR      64  61  88 SE8       29.87R
TIOGA          FAIR      66  59  77 SE10      29.88R
WATFORD CITY   FAIR      66  54  63 SE7       29.83R
$$

CITY           SKY/WX    TMP DP  RH WIND       PRES   REMARKS
GRAND FORKS    MOCLDY    64  51  62 S13       30.01R
GRAND FORKS AF MOCLDY    64  54  71 S15       30.01R
DEVILS LAKE    CLOUDY    63  52  67 S16       29.96S
FARGO          CLOUDY    64  52  64 S12G24    30.03S
CANDO          CLOUDY    61  55  82 S17G24    29.96R
CAVALIER       FAIR      64  52  63 S14G20    29.96R
GRAFTON        FAIR      63  52  67 S17       29.99R
GWINNER          N/A     59  59 100 SE10      30.02S
LANGDON        MOCLDY    63  55  77 S16       29.97R
ROLLA          CLOUDY    61  57  88 S14G23    29.95R
WALHALLA         N/A     66  55  68 S10       29.95R
$$

CITY           SKY/WX    TMP DP  RH WIND       PRES   REMARKS
ABERDEEN       CLOUDY    59  57  93 SE9       29.98S
MOBRIDGE       CLOUDY    61  58  90 SE8       29.92R
BUFFALO          N/A     72  52  49 N10       29.87R
RAPID CITY     CLEAR     63  53  70 CALM      29.96R
GLASGOW        CLEAR     70  50  49 W5        29.87R
SIDNEY         CLEAR     66  50  55 W10       29.87R
WOLF POINT     CLEAR     67  50  54 CALM      29.85R
GLENDIVE       CLEAR     61  48  63 NW8       29.91R
MILES CITY     CLEAR     73  45  36 NW6       29.92R
BAKER          CLEAR     65  48  54 W6        29.93R
$$

CITY           SKY/WX    TMP DP  RH WIND       PRES   REMARKS
BILLINGS       PTCLDY    78  43  28 S5        29.99R
GREAT FALLS    CLEAR     60  47  61 S8        29.97R
REGINA         PTCLDY    66  54  63 W6        29.80R
ESTEVAN        PTCLDY    63  55  77 SE6       29.81S
$$



USA.gov is the U.S. government's official web portal to all federal, state and local government web resources and services.